[[{"header":{"parameterUnit":"m.s-1","parameterCategory":1,"la1":30.2991,"la2":30.254,"lo1":-89.0895,"lo2":-89.0444,"dy":0.0017,"dx":0.0017,"nx":28,"ny":28,"refTime":"2024-08-04T09:00:00:Z","depth":0,"parameterNumber":2,"parameterNumberName":"U-component_of_WINDS"},"data":[0,0,0,0,0,0,0,0,0,0,0,0,0,0,0,0,0,0,0,0,0,0,0,0,0,0,0,0,0,0,0,0,0,0,0,0,0,0,0,0,0,0,0,0,0,0,0,0,0,0,0,0,0,0,0,0,0,0,1.5115,1.5116,0,1.5186,1.5186,1.5187,1.5234,1.5235,1.5235,1.5235,1.5301,1.5303,1.5304,0,0,0,0,0,0,0,0,0,0,0,0,0,1.5013,1.5015,1.5115,1.5116,1.5117,1.5186,1.5186,1.5187,1.5234,1.5235,1.5235,1.5235,1.5301,1.5303,1.5304,0,0,0,0,0,0,0,0,0,0,0,0,0,1.5068,1.5016,1.5115,1.5149,1.5152,1.5185,1.5187,1.5188,1.5234,1.5235,1.5235,1.5236,1.53,1.5303,1.5305,1.5308,0,0,1.5311,1.5312,0,0,0,0,0,0,0,0,1.5065,1.5072,1.5143,1.5146,1.5151,1.5202,1.5175,1.5228,1.5234,1.5203,1.5235,1.5236,1.5267,1.5272,1.5284,1.5311,1.5314,1.5311,1.5313,1.5314,1.5314,0,0,0,0,0,0,0,1.5061,1.5069,1.5143,1.5144,1.5148,1.5158,1.5166,1.5185,1.5231,1.5206,1.5209,1.5217,1.527,1.5282,1.5286,1.5315,1.5311,1.5313,1.5315,1.5316,1.5345,1.5344,0,0,0,0,0,0,1.5053,1.5065,1.5141,1.5145,1.5108,1.5159,1.5169,1.5185,1.5231,1.5239,1.5217,1.5219,1.5278,1.5284,1.5289,1.5294,1.5314,1.5316,1.5317,1.5345,1.5345,1.5344,0,0,0,0,0,0,1.505,1.5059,1.5138,1.5106,1.5117,1.5161,1.5178,1.5186,1.5199,1.524,1.5247,1.5222,1.5279,1.5286,1.5303,1.5297,1.5317,1.5319,1.5346,1.5345,1.5344,1.5305,0,0,0,0,0,0,1.5047,1.5058,1.5062,1.5106,1.5118,1.5152,1.5178,1.5187,1.5203,1.5207,1.5246,1.5253,1.528,1.5299,1.5305,1.53,1.532,1.5347,1.5346,1.5345,1.5307,1.5303,1.53,0,0,0,0,0,1.5044,1.5047,1.5061,1.507,1.5124,1.5152,1.5159,1.5191,1.5202,1.5205,1.5231,1.5252,1.5297,1.53,1.5307,1.5303,1.5347,1.5346,1.5345,1.5309,1.5304,1.53,0,0,0,0,0,0,1.4999,1.5053,1.507,1.5088,1.5115,1.516,1.5164,1.5185,1.5208,1.5211,1.5248,1.5256,1.5269,1.5288,1.5291,1.5308,1.5324,1.5324,1.5295,1.529,1.5287,1.5281,1.5322,0,0,0,0,0,1.4991,1.5012,1.5057,1.5069,1.5082,1.5121,1.5134,1.5157,1.5185,1.5196,1.5224,1.5249,1.5269,1.5281,1.5301,1.531,1.5318,1.5311,1.5307,1.5304,1.5303,1.5307,1.5303,1.534,1.534,1.534,0,0,1.4975,1.5008,1.5018,1.5061,1.5084,1.5102,1.513,1.5148,1.5161,1.5198,1.5216,1.5237,1.5267,1.528,1.5287,1.5296,1.5295,1.5302,1.5299,1.53,1.5305,1.5302,1.5299,1.5339,1.534,1.534,0,0,1.4956,1.4983,1.4995,1.5018,1.5054,1.508,1.5082,1.5124,1.5139,1.5158,1.5186,1.5201,1.5235,1.5254,1.5269,1.5255,1.5274,1.526,1.524,1.5244,1.5241,1.5238,1.5231,1.5229,1.526,1.5259,1.5259,0,1.4931,1.4961,1.4998,1.5014,1.5031,1.5067,1.5078,1.5098,1.5137,1.5147,1.5157,1.5199,1.5223,1.5239,1.5236,1.5247,1.5249,1.5256,1.5239,1.5237,1.5235,1.5228,1.5226,1.5257,1.5258,1.5258,1.5258,0,1.4928,1.4948,1.4953,1.4992,1.5009,1.5022,1.5058,1.5071,1.5091,1.5115,1.5132,1.5161,1.5187,1.5193,1.5213,1.5212,1.5216,1.5232,1.5249,1.5229,1.5223,1.5221,1.5255,1.5255,1.5256,1.5256,0,0,1.4882,1.4941,1.4942,1.4959,1.5001,1.5016,1.5029,1.5056,1.5065,1.5091,1.5102,1.5129,1.5144,1.516,1.5182,1.5185,1.5169,1.5201,1.5202,1.5192,1.5167,1.5154,1.5151,1.5183,1.5183,1.5182,1.5164,0,1.4867,1.4896,1.4929,1.4945,1.4962,1.4996,1.5008,1.5033,1.5055,1.5071,1.5094,1.5112,1.5132,1.5141,1.5146,1.517,1.5164,1.5172,1.519,1.5191,1.518,1.5148,1.5134,1.5116,1.5162,1.5162,1.5162,0,1.4855,1.488,1.4898,1.4936,1.4945,1.4955,1.4981,1.4997,1.5025,1.5041,1.5058,1.5082,1.5095,1.5111,1.5129,1.5133,1.5142,1.5155,1.5155,1.5157,1.5174,1.5147,1.5111,1.5107,1.5159,1.5159,1.516,0,1.4817,1.4855,1.4871,1.4885,1.493,1.4936,1.4955,1.4984,1.4997,1.502,1.5028,1.5051,1.5063,1.5079,1.5107,1.5117,1.5121,1.514,1.5132,1.5131,1.513,1.5129,1.5093,1.5138,1.5138,1.5138,1.5139,0,1.4797,1.4806,1.4855,1.4864,1.4874,1.491,1.4919,1.494,1.4965,1.4977,1.5008,1.5018,1.5056,1.5069,1.5091,1.5101,1.5107,1.5117,1.5123,1.5114,1.5112,1.5119,1.5121,1.5138,1.5138,1.5138,1.5138,0,1.4756,1.479,1.4809,1.485,1.486,1.4866,1.49,1.4909,1.4933,1.4947,1.4953,1.4989,1.5006,1.5037,1.5063,1.5077,1.5082,1.5092,1.5073,1.5076,1.5065,1.5065,1.503,1.5027,1.5076,1.5076,1.5075,0,1.4741,1.4749,1.4791,1.4802,1.482,1.4838,1.4852,1.4886,1.4899,1.4931,1.4935,1.4955,1.4974,1.5,1.5027,1.5046,1.5056,1.5043,1.5059,1.5049,1.5053,1.5052,1.5051,1.5038,1.5038,1.5037,1.5037,0,1.4708,1.4724,1.4744,1.4769,1.4785,1.4807,1.4829,1.4836,1.4875,1.4887,1.4906,1.492,1.4947,1.4966,1.4989,1.5006,1.5026,1.5031,1.503,1.502,1.5008,1.5012,1.506,1.5032,1.5032,1.5033,1.5033,1.5033,1.4678,1.4686,1.4717,1.4737,1.4758,1.4778,1.4788,1.4813,1.483,1.4855,1.4874,1.4891,1.4916,1.495,1.4965,1.4978,1.4987,1.4986,1.4985,1.4984,1.4979,1.5007,1.4982,1.4982,1.4983,1.4983,1.4983,0,1.4646,1.4667,1.4686,1.4716,1.4732,1.4752,1.4777,1.4788,1.4803,1.4826,1.4843,1.4864,1.4882,1.491,1.493,1.4934,1.4943,1.4937,1.4936,1.4939,1.4971,1.4969,1.4929,1.4929,1.4929,1.4929,1.4929,1.4929,1.4631,1.4644,1.4663,1.4686,1.4707,1.4725,1.4737,1.4755,1.4773,1.4795,1.4811,1.4829,1.4853,1.4875,1.4891,1.4899,1.4904,1.4894,1.4904,1.4933,1.4938,1.4942,1.4941,1.4895,1.4895,1.4872,1.4871,1.4871]},{"header":{"parameterUnit":"m.s-1","parameterCategory":1,"la1":30.2991,"la2":30.254,"lo1":-89.0895,"lo2":-89.0444,"dy":0.0017,"dx":0.0017,"nx":28,"ny":28,"refTime":"2024-08-04T09:00:00:Z","depth":0,"parameterNumber":3,"parameterNumberName":"V-component_of_WINDS"},"data":[0,0,0,0,0,0,0,0,0,0,0,0,0,0,0,0,0,0,0,0,0,0,0,0,0,0,0,0,0,0,0,0,0,0,0,0,0,0,0,0,0,0,0,0,0,0,0,0,0,0,0,0,0,0,0,0,0,0,0.9817,0.9817,0,0.9844,0.9844,0.9844,0.9844,0.9844,0.9843,0.9843,0.9869,0.987,0.9871,0,0,0,0,0,0,0,0,0,0,0,0,0,0.9765,0.9766,0.9817,0.9817,0.9818,0.9844,0.9844,0.9845,0.9844,0.9844,0.9843,0.9843,0.9869,0.987,0.9871,0,0,0,0,0,0,0,0,0,0,0,0,0,0.9789,0.9766,0.9817,0.9821,0.9821,0.9844,0.9844,0.9845,0.9844,0.9844,0.9843,0.9843,0.9868,0.987,0.9871,0.9892,0,0,0.9876,0.9877,0,0,0,0,0,0,0,0,0.9788,0.9791,0.982,0.9821,0.9821,0.984,0.9835,0.986,0.9844,0.9835,0.9843,0.9842,0.986,0.9862,0.9868,0.9893,0.9894,0.9876,0.9877,0.9878,0.9878,0,0,0,0,0,0,0,0.9786,0.979,0.9828,0.982,0.9821,0.9821,0.9824,0.984,0.985,0.9836,0.9836,0.984,0.986,0.9867,0.9869,0.9894,0.9876,0.9878,0.9879,0.9879,0.9936,0.9937,0,0,0,0,0,0,0.9784,0.9788,0.9827,0.9828,0.9803,0.9822,0.9825,0.9835,0.985,0.9852,0.984,0.9839,0.9864,0.9867,0.987,0.9894,0.9878,0.9879,0.988,0.9936,0.9936,0.9937,0,0,0,0,0,0,0.9782,0.9787,0.9826,0.9808,0.9813,0.9824,0.9834,0.9835,0.9842,0.9853,0.9855,0.9845,0.9864,0.9868,0.9886,0.9895,0.988,0.9881,0.9935,0.9936,0.9937,0.9942,0,0,0,0,0,0,0.9781,0.9787,0.9795,0.9809,0.9814,0.9842,0.9835,0.9836,0.9845,0.9844,0.9858,0.986,0.9864,0.9884,0.9888,0.9896,0.9883,0.9934,0.9935,0.9936,0.9941,0.9943,0.9945,0,0,0,0,0,0.9779,0.9795,0.9795,0.98,0.9825,0.9842,0.9846,0.985,0.9846,0.9853,0.986,0.9859,0.9893,0.9886,0.989,0.9899,0.9934,0.9935,0.9936,0.994,0.9943,0.9945,0,0,0,0,0,0,0.9781,0.9797,0.9797,0.9818,0.9829,0.9842,0.9852,0.9853,0.9865,0.9864,0.9869,0.9872,0.9891,0.9897,0.9888,0.992,0.9913,0.9915,0.9914,0.9917,0.9918,0.9916,0.9884,0,0,0,0,0,0.9784,0.9798,0.9811,0.9828,0.9833,0.9842,0.985,0.9853,0.9864,0.9869,0.9877,0.9888,0.9901,0.9909,0.9922,0.9943,0.9945,0.9951,0.9953,0.9954,0.9956,0.9966,0.9969,0.9941,0.9941,0.9941,0,0,0.979,0.98,0.9808,0.9828,0.9837,0.9851,0.9846,0.986,0.987,0.9871,0.9889,0.9895,0.9908,0.9927,0.9936,0.9933,0.9964,0.9956,0.9957,0.9958,0.9968,0.9971,0.9973,0.9942,0.9942,0.9942,0,0,0.9808,0.9817,0.9832,0.9841,0.9855,0.9861,0.9864,0.9878,0.9882,0.9901,0.9901,0.9913,0.9936,0.9944,0.9952,0.9973,0.9972,0.9977,0.9986,0.9996,0.9998,1.0,1.0007,1.0009,0.9979,0.9979,0.9979,0,0.9813,0.9834,0.984,0.9854,0.9863,0.9865,0.9879,0.9888,0.9905,0.991,0.9907,0.9935,0.9944,0.9965,0.997,0.9977,0.998,0.9975,0.9998,1.0,1.0001,1.0008,1.001,0.9979,0.9979,0.9979,0.9979,0,0.9839,0.9854,0.9864,0.9881,0.9891,0.9905,0.9913,0.9922,0.9925,0.9931,0.9949,0.9959,0.9974,0.998,0.9982,1.0001,0.9999,0.9997,0.999,1.0004,1.001,1.0013,0.998,0.998,0.998,0.998,0,0,0.9858,0.9878,0.9881,0.9889,0.9904,0.9915,0.993,0.9945,0.9952,0.9964,0.9976,0.9996,0.9994,1.0002,1.0005,1.0015,1.003,1.0011,1.0012,1.0013,1.0051,1.0051,1.0054,1.003,1.0031,1.0031,1.0049,0,0.9876,0.9902,0.9908,0.9931,0.9944,0.9946,0.9959,0.9969,0.9976,0.9987,0.9994,1.0007,1.0004,1.0009,1.0019,1.0026,1.0037,1.0025,1.004,1.0041,1.0036,1.0058,1.0058,1.0075,1.0052,1.0052,1.0053,0,0.9901,0.9913,0.9937,0.995,0.9956,0.9967,0.9981,0.9993,1.0005,1.0009,1.0018,1.0021,1.0036,1.003,1.005,1.0042,1.0049,1.0053,1.0054,1.0054,1.0047,1.0058,1.0081,1.0083,1.0057,1.0056,1.0056,0,0.991,0.9933,0.995,0.9957,0.9973,0.9981,0.9988,1.0,1.0008,1.0021,1.0026,1.004,1.0047,1.0058,1.0064,1.0059,1.0084,1.0078,1.0086,1.0086,1.009,1.009,1.0114,1.0097,1.0097,1.0097,1.0097,0,0.9929,0.9943,0.9955,0.9965,0.9981,0.9988,1.0003,1.001,1.0021,1.0032,1.0036,1.0046,1.0054,1.0066,1.0071,1.0087,1.0091,1.0094,1.0094,1.0093,1.0092,1.0096,1.0095,1.0098,1.0097,1.0097,1.0097,0,0.9942,0.995,0.9969,0.9983,0.9987,0.9998,1.001,1.002,1.0027,1.0041,1.0045,1.0056,1.007,1.0077,1.0095,1.0098,1.0115,1.0116,1.0111,1.0111,1.0119,1.0118,1.0146,1.0149,1.0131,1.0131,1.0132,0,0.9953,0.9964,0.9979,0.9987,0.9995,1.0008,1.0016,1.0024,1.0033,1.0048,1.0056,1.007,1.0082,1.0104,1.0113,1.0126,1.0127,1.0136,1.0129,1.0127,1.0126,1.0125,1.0125,1.0136,1.0137,1.0137,1.0137,0,0.9971,0.9974,0.9987,1.0001,1.0011,1.0023,1.0034,1.004,1.005,1.006,1.0074,1.0083,1.0101,1.0115,1.013,1.0137,1.0138,1.0139,1.0142,1.0139,1.0135,1.0137,1.0113,1.0138,1.0138,1.0138,1.0138,1.0138,0.9982,0.9992,1.0004,1.0018,1.0027,1.0038,1.0048,1.0056,1.0068,1.0084,1.0088,1.0103,1.0115,1.0134,1.0142,1.0154,1.0152,1.0156,1.0156,1.0157,1.0157,1.0135,1.0156,1.0156,1.0156,1.0156,1.0156,0,0.9999,1.0008,1.002,1.0036,1.0047,1.0048,1.0061,1.007,1.0083,1.0094,1.0106,1.0122,1.0136,1.0147,1.016,1.0168,1.0169,1.0171,1.017,1.0172,1.0158,1.0154,1.017,1.017,1.017,1.017,1.017,1.017,1.0009,1.0026,1.0031,1.0052,1.006,1.0075,1.0082,1.0091,1.01,1.0119,1.013,1.0137,1.0148,1.0163,1.0175,1.0178,1.0183,1.0185,1.0187,1.0174,1.0173,1.0171,1.0167,1.0186,1.0186,1.02,1.02,1.02]}]]